Weather History for KRDU - October, 2012

Change the Weather History Date:

Tuesday, October 23, 2012

  Actual Average Record
Temperature  
Mean Temperature 63 °F 59 °F  
Max Temperature 80 °F 71 °F 88 °F (1941)
Min Temperature 46 °F 47 °F 29 °F (1998)
Degree Days  
Heating Degree Days 2 7  
Month to date heating degree days 105 104  
Since 1 July heating degree days 115 125  
Cooling Degree Days 0 1  
Month to date cooling degree days 46 45  
Year to date cooling degree days 1869 1713  
Growing Degree Days 12 (Base 50)    
Moisture  
Dew Point 50 °F    
Average Humidity 66    
Maximum Humidity 93    
Minimum Humidity 39    
Precipitation  
Precipitation 0.00 in 0.10 in 1.89 in (1990)
Month to date precipitation 1.17 2.45  
Year to date precipitation 36.63 36.35  
Sea Level Pressure  
Sea Level Pressure 30.16 in    
Wind  
Wind Speed 3 mph (SW)    
Max Wind Speed 12 mph    
Max Gust Speed 15 mph    
Visibility 10 miles    
Events      
T = Trace of Precipitation, MM = Missing Value Source: NWS Daily Summary

Daily Weather History Graph

Daily Weather History Graph

Search for Another Location

Airport or City:

Trip Planner

Search our weather history database for the weather conditions in past years. The results will help you decide how hot, cold, wet, or windy it might be!

Date:

Astronomy

Oct. 23, 2012 Rise Set
Actual Time 7:29 AM EDT 6:28 PM EDT
Civil Twilight 7:03 AM EDT 6:54 PM EDT
Nautical Twilight 6:33 AM EDT 7:24 PM EDT
Astronomical Twilight 6:03 AM EDT 7:54 PM EDT
Moon 3:01 PM EDT (10/23) 1:30 AM EDT (10/23)
Length of Visible Light 11h 51m
Length of Day
10h 59m
Waxing Gibbous, 66% of the Moon is Illuminated
Oct 23
Waxing Gibbous
Oct 29
Full
Nov 6
Last Quarter
Nov 13
New
Nov 20
First Quarter

Hourly Weather History & Observations

Time (EDT) Temp. Dew Point Humidity Pressure Visibility Wind Dir Wind Speed Gust Speed Precip Events Conditions
12:51 AM 52.0 °F 48.0 °F 86% 30.18 in 10.0 mi Calm Calm - N/A   Clear
1:51 AM 51.1 °F 46.9 °F 86% 30.17 in 10.0 mi Calm Calm - N/A   Clear
2:51 AM 50.0 °F 46.4 °F 87% 30.17 in 10.0 mi Calm Calm - N/A   Partly Cloudy
3:51 AM 48.9 °F 46.0 °F 90% 30.15 in 10.0 mi Calm Calm - N/A   Partly Cloudy
4:51 AM 48.0 °F 45.0 °F 89% 30.16 in 10.0 mi Calm Calm - N/A   Clear
5:51 AM 48.0 °F 45.0 °F 89% 30.16 in 10.0 mi Calm Calm - N/A   Clear
6:51 AM 46.0 °F 43.0 °F 89% 30.18 in 10.0 mi Calm Calm - N/A   Clear
7:51 AM 48.0 °F 46.0 °F 93% 30.19 in 10.0 mi Calm Calm - N/A   Partly Cloudy
8:51 AM 53.1 °F 50.0 °F 89% 30.21 in 10.0 mi SW 4.6 mph - N/A   Partly Cloudy
9:51 AM 60.1 °F 53.1 °F 78% 30.20 in 10.0 mi SW 3.5 mph - N/A   Partly Cloudy
10:51 AM 68.0 °F 53.1 °F 59% 30.19 in 10.0 mi SW 4.6 mph - N/A   Partly Cloudy
11:51 AM 73.0 °F 53.1 °F 49% 30.18 in 10.0 mi WSW 4.6 mph - N/A   Partly Cloudy
12:51 PM 77.0 °F 53.1 °F 43% 30.17 in 10.0 mi WSW 8.1 mph - N/A   Partly Cloudy
1:51 PM 79.0 °F 52.0 °F 39% 30.14 in 10.0 mi WSW 10.4 mph - N/A   Partly Cloudy
2:51 PM 78.1 °F 51.1 °F 39% 30.12 in 10.0 mi SW 6.9 mph - N/A   Partly Cloudy
3:51 PM 78.8 °F 51.8 °F 39% 30.11 in 10.0 mi WSW 6.9 mph - N/A   Partly Cloudy
4:51 PM 78.8 °F 51.8 °F 39% 30.12 in 10.0 mi WSW 5.8 mph - N/A   Partly Cloudy
5:51 PM 73.0 °F 51.1 °F 46% 30.11 in 10.0 mi SW 4.6 mph - N/A   Partly Cloudy
6:51 PM 68.0 °F 52.0 °F 56% 30.11 in 10.0 mi South 4.6 mph - N/A   Scattered Clouds
7:51 PM 63.0 °F 53.1 °F 70% 30.12 in 10.0 mi Calm Calm - N/A   Scattered Clouds
8:51 PM 60.1 °F 52.0 °F 75% 30.13 in 10.0 mi Calm Calm - N/A   Partly Cloudy
9:51 PM 59.0 °F 51.1 °F 75% 30.14 in 10.0 mi Calm Calm - N/A   Partly Cloudy
10:51 PM 57.9 °F 51.1 °F 78% 30.14 in 10.0 mi Calm Calm - N/A   Partly Cloudy
11:51 PM 57.0 °F 51.1 °F 81% 30.15 in 10.0 mi Calm Calm - N/A   Partly Cloudy